| time (UTC) | temp C | wind direction | speed KPH | gust KPH | rain 1hr cm | rain 24hr cm | rain mn cm | humidity % | barometer mb |
| 20260506044458 | 20 | 142 | 0.0 | 0.0 | 0.00 | 0.00 | 0.00 | 58 | |
| 20260506043954 | 20 | 142 | 0.0 | 0.0 | 0.00 | 0.00 | 0.00 | 58 | |
| 20260506043451 | 20 | 142 | 0.0 | 0.0 | 0.00 | 0.00 | 0.00 | 58 | |
| 20260506042949 | 20 | 142 | 0.0 | 0.0 | 0.00 | 0.00 | 0.00 | 57 | |
| 20260506042448 | 20 | 142 | 0.0 | 0.0 | 0.00 | 0.00 | 0.00 | 57 | |
| 20260506041946 | 20 | 142 | 0.0 | 0.0 | 0.00 | 0.00 | 0.00 | 56 | |
| 20260506041444 | 20 | 142 | 0.0 | 1.6 | 0.00 | 0.00 | 0.00 | 56 | |
| 20260506040941 | 20 | 145 | 0.0 | 0.0 | 0.00 | 0.00 | 0.00 | 56 | |
| 20260506040438 | 20 | 148 | 0.0 | 0.0 | 0.00 | 0.00 | 0.00 | 56 | |
| 20260506035934 | 20 | 148 | 0.0 | 0.0 | 0.00 | 0.00 | 0.00 | 56 | |
| 20260506035431 | 20 | 148 | 0.0 | 0.0 | 0.00 | 0.00 | 0.00 | 57 | |
| 20260506034928 | 20 | 148 | 0.0 | 0.0 | 0.00 | 0.00 | 0.00 | 56 | |
| 20260506034425 | 20 | 148 | 0.0 | 0.0 | 0.00 | 0.00 | 0.00 | 55 | |
| 20260506033922 | 20 | 148 | 0.0 | 0.0 | 0.00 | 0.00 | 0.00 | 56 | |
| 20260506033420 | 20 | 148 | 0.0 | 0.0 | 0.00 | 0.00 | 0.00 | 54 | |
| 20260506032916 | 20 | 148 | 0.0 | 0.0 | 0.00 | 0.00 | 0.00 | 54 | |
| 20260506032413 | 20 | 148 | 0.0 | 0.0 | 0.00 | 0.00 | 0.00 | 54 | |
| 20260506031910 | 20 | 148 | 0.0 | 0.0 | 0.00 | 0.00 | 0.00 | 55 | |
| 20260506031407 | 20 | 148 | 0.0 | 0.0 | 0.00 | 0.00 | 0.00 | 56 | |
| 20260506030905 | 20 | 148 | 0.0 | 0.0 | 0.00 | 0.00 | 0.00 | 57 | |
| 20260506030403 | 20 | 148 | 0.0 | 0.0 | 0.00 | 0.00 | 0.00 | 62 | |
| 20260506025859 | 20 | 148 | 0.0 | 0.0 | 0.00 | 0.00 | 0.00 | 62 | |
| 20260506025356 | 20 | 148 | 0.0 | 0.0 | 0.00 | 0.00 | 0.00 | 62 | |
| 20260506024853 | 20 | 148 | 0.0 | 0.0 | 0.00 | 0.00 | 0.00 | 61 | |
| 20260506024350 | 19 | 148 | 0.0 | 0.0 | 0.00 | 0.00 | 0.00 | 58 | |
| 20260506023846 | 19 | 148 | 0.0 | 0.0 | 0.00 | 0.00 | 0.00 | 63 | |
| 20260506023343 | 19 | 148 | 0.0 | 0.0 | 0.00 | 0.00 | 0.00 | 63 | |
| 20260506022839 | 19 | 149 | 0.0 | 0.0 | 0.00 | 0.00 | 0.00 | 62 | |
| 20260506022337 | 19 | 150 | 0.0 | 0.0 | 0.00 | 0.00 | 0.00 | 65 | |
| 20260506021835 | 20 | 149 | 0.0 | 0.0 | 0.00 | 0.00 | 0.00 | 65 | |
| 20260506021332 | 20 | 149 | 0.0 | 0.0 | 0.00 | 0.00 | 0.00 | 61 | |
| 20260506020828 | 20 | 140 | 0.0 | 1.6 | 0.00 | 0.00 | 0.00 | 61 | |
| 20260506020327 | 20 | 144 | 0.0 | 0.0 | 0.00 | 0.00 | 0.00 | 58 | |
| 20260506015824 | 20 | 144 | 0.0 | 0.0 | 0.00 | 0.00 | 0.00 | 61 | |
| 20260506015321 | 20 | 144 | 0.0 | 0.0 | 0.00 | 0.00 | 0.00 | 64 | |
| 20260506014817 | 20 | 143 | 0.0 | 0.0 | 0.00 | 0.00 | 0.00 | 65 | |
| 20260506014315 | 20 | 143 | 0.0 | 0.0 | 0.00 | 0.00 | 0.00 | 64 | |
| 20260506013811 | 20 | 143 | 0.0 | 0.0 | 0.00 | 0.00 | 0.00 | 61 | |
| 20260506013309 | 20 | 144 | 0.0 | 0.0 | 0.00 | 0.00 | 0.00 | 56 | |
| 20260506012805 | 20 | 144 | 0.0 | 0.0 | 0.00 | 0.00 | 0.00 | 54 | |
| 20260506012307 | 20 | 144 | 0.0 | 0.0 | 0.00 | 0.00 | 0.00 | 57 | |
| 20260506011759 | 20 | 143 | 0.0 | 0.0 | 0.00 | 0.00 | 0.00 | 56 | |
| 20260506011255 | 20 | 144 | 0.0 | 0.0 | 0.00 | 0.00 | 0.00 | 57 | |
| 20260506010754 | 20 | 143 | 0.0 | 0.0 | 0.00 | 0.00 | 0.00 | 60 | |
| 20260506010251 | 20 | 139 | 0.0 | 0.0 | 0.00 | 0.00 | 0.00 | 58 | |
| 20260506005748 | 20 | 143 | 0.0 | 0.0 | 0.00 | 0.00 | 0.00 | 56 | |
| 20260506005245 | 20 | 143 | 0.0 | 0.0 | 0.00 | 0.00 | 0.00 | 54 | |
| 20260506004740 | 20 | 143 | 0.0 | 0.0 | 0.00 | 0.00 | 0.00 | 54 | |
| 20260506004238 | 21 | 143 | 0.0 | 0.0 | 0.00 | 0.00 | 0.00 | 54 | |
| 20260506003734 | 21 | 149 | 0.0 | 0.0 | 0.00 | 0.00 | 0.00 | 54 | |
| 20260506003231 | 21 | 157 | 0.0 | 0.0 | 0.00 | 0.00 | 0.00 | 58 | |
| 20260506002726 | 21 | 149 | 0.0 | 0.0 | 0.00 | 0.00 | 0.00 | 57 | |
| 20260506002223 | 21 | 150 | 0.0 | 0.0 | 0.00 | 0.00 | 0.00 | 59 | |
| 20260506001719 | 21 | 150 | 0.0 | 0.0 | 0.00 | 0.00 | 0.00 | 57 | |
| 20260506001217 | 22 | 160 | 0.0 | 1.6 | 0.00 | 0.00 | 0.00 | 56 | |
| 20260506000713 | 21 | 140 | 0.0 | 0.0 | 0.00 | 0.00 | 0.00 | 54 | |
| 20260506000212 | 22 | 155 | 0.0 | 0.0 | 0.00 | 0.00 | 0.00 | 54 | |
| 20260505235708 | 22 | 155 | 0.0 | 0.0 | 0.00 | 0.00 | 0.00 | 52 | |
| 20260505235206 | 22 | 155 | 0.0 | 0.0 | 0.00 | 0.00 | 0.00 | 51 | |
| 20260505234703 | 22 | 155 | 0.0 | 0.0 | 0.00 | 0.00 | 0.00 | 50 | |
| 20260505234200 | 22 | 155 | 0.0 | 0.0 | 0.00 | 0.00 | 0.00 | 49 | |
| 20260505233656 | 23 | 155 | 0.0 | 0.0 | 0.00 | 0.00 | 0.00 | 47 | |
| 20260505233155 | 23 | 155 | 0.0 | 0.0 | 0.00 | 0.00 | 0.00 | 46 | |
| 20260505232652 | 23 | 155 | 0.0 | 0.0 | 0.00 | 0.00 | 0.00 | 46 | |
| 20260505232149 | 23 | 155 | 0.0 | 0.0 | 0.00 | 0.00 | 0.00 | 46 | |
| 20260505231645 | 23 | 155 | 0.0 | 0.0 | 0.00 | 0.00 | 0.00 | 45 | |
| 20260505231145 | 23 | 155 | 0.0 | 0.0 | 0.00 | 0.00 | 0.00 | 46 | |
| 20260505230642 | 23 | 156 | 0.0 | 0.0 | 0.00 | 0.00 | 0.00 | 45 | |
| 20260505230138 | 24 | 156 | 0.0 | 1.6 | 0.00 | 0.00 | 0.00 | 42 | |
| 20260505225635 | 24 | 149 | 1.6 | 1.6 | 0.00 | 0.00 | 0.00 | 43 | |
| 20260505225131 | 24 | 154 | 0.0 | 0.0 | 0.00 | 0.00 | 0.00 | 43 | |
| 20260505224628 | 23 | 152 | 0.0 | 1.6 | 0.00 | 0.00 | 0.00 | 46 | |
| 20260505224125 | 23 | 153 | 0.0 | 1.6 | 0.00 | 0.00 | 0.00 | 41 | |
| 20260505223622 | 23 | 150 | 0.0 | 0.0 | 0.00 | 0.00 | 0.00 | 42 | |
| 20260505223119 | 24 | 144 | 0.0 | 0.0 | 0.00 | 0.00 | 0.00 | 46 | |
| 20260505222615 | 24 | 146 | 0.0 | 1.6 | 0.00 | 0.00 | 0.00 | 44 | |
| 20260505222111 | 24 | 155 | 0.0 | 0.0 | 0.00 | 0.00 | 0.00 | 43 | |
| 20260505221608 | 24 | 156 | 1.6 | 1.6 | 0.00 | 0.00 | 0.00 | 43 | |
| 20260505221105 | 24 | 140 | 0.0 | 3.2 | 0.00 | 0.00 | 0.00 | 42 | |
| 20260505220602 | 25 | 156 | 0.0 | 1.6 | 0.00 | 0.00 | 0.00 | 41 | |
| 20260505220100 | 25 | 163 | 3.2 | 3.2 | 0.00 | 0.00 | 0.00 | 39 | |
| 20260505215558 | 24 | 159 | 0.0 | 1.6 | 0.00 | 0.00 | 0.00 | 40 | |
| 20260505215055 | 24 | 147 | 0.0 | 1.6 | 0.00 | 0.00 | 0.00 | 39 | |
| 20260505214554 | 25 | 154 | 4.8 | 4.8 | 0.00 | 0.00 | 0.00 | 38 | |
| 20260505214050 | 25 | 169 | 1.6 | 4.8 | 0.00 | 0.00 | 0.00 | 39 | |
| 20260505213548 | 24 | 137 | 1.6 | 3.2 | 0.00 | 0.00 | 0.00 | 40 | |
| 20260505213044 | 25 | 143 | 0.0 | 1.6 | 0.00 | 0.00 | 0.00 | 39 | |
| 20260505212540 | 25 | 159 | 3.2 | 4.8 | 0.00 | 0.00 | 0.00 | 38 | |
| 20260505212038 | 25 | 151 | 0.0 | 3.2 | 0.00 | 0.00 | 0.00 | 38 | |
| 20260505211535 | 25 | 138 | 1.6 | 3.2 | 0.00 | 0.00 | 0.00 | 38 | |
| 20260505211031 | 25 | 163 | 0.0 | 11.3 | 0.00 | 0.00 | 0.00 | 38 | |
| 20260505210528 | 25 | 175 | 3.2 | 6.4 | 0.00 | 0.00 | 0.00 | 37 | |
| 20260505210025 | 25 | 154 | 1.6 | 3.2 | 0.00 | 0.00 | 0.00 | 38 | |
| 20260505205523 | 25 | 200 | 6.4 | 9.7 | 0.00 | 0.00 | 0.00 | 38 | |
| 20260505205020 | 25 | 167 | 0.0 | 3.2 | 0.00 | 0.00 | 0.00 | 40 | |
| 20260505204518 | 25 | 142 | 0.0 | 3.2 | 0.00 | 0.00 | 0.00 | 39 | |
| 20260505204015 | 25 | 163 | 0.0 | 4.8 | 0.00 | 0.00 | 0.00 | 40 | |
| 20260505203511 | 25 | 171 | 1.6 | 4.8 | 0.00 | 0.00 | 0.00 | 38 | |
| 20260505203008 | 25 | 158 | 3.2 | 4.8 | 0.00 | 0.00 | 0.00 | 40 | |
| 20260505202504 | 25 | 157 | 0.0 | 3.2 | 0.00 | 0.00 | 0.00 | 38 | |
| 20260505202000 | 25 | 189 | 1.6 | 4.8 | 0.00 | 0.00 | 0.00 | 37 | |
| 20260505201458 | 25 | 168 | 4.8 | 11.3 | 0.00 | 0.00 | 0.00 | 37 | |
| 20260505200955 | 25 | 180 | 1.6 | 4.8 | 0.00 | 0.00 | 0.00 | 37 | |
| 20260505200453 | 25 | 186 | 3.2 | 4.8 | 0.00 | 0.00 | 0.00 | 39 | |
| 20260505195948 | 25 | 157 | 0.0 | 3.2 | 0.00 | 0.00 | 0.00 | 40 | |
| 20260505195446 | 25 | 161 | 1.6 | 3.2 | 0.00 | 0.00 | 0.00 | 38 | |
| 20260505194943 | 25 | 104 | 3.2 | 6.4 | 0.00 | 0.00 | 0.00 | 38 | |
| 20260505194440 | 25 | 176 | 3.2 | 6.4 | 0.00 | 0.00 | 0.00 | 39 | |
| 20260505193940 | 25 | 154 | 1.6 | 3.2 | 0.00 | 0.00 | 0.00 | 39 | |
| 20260505193438 | 25 | 200 | 1.6 | 3.2 | 0.00 | 0.00 | 0.00 | 39 | |
| 20260505192936 | 25 | 140 | 1.6 | 4.8 | 0.00 | 0.00 | 0.00 | 41 | |
| 20260505192434 | 25 | 141 | 0.0 | 1.6 | 0.00 | 0.00 | 0.00 | 44 | |
| 20260505191931 | 25 | 173 | 1.6 | 6.4 | 0.00 | 0.00 | 0.00 | 39 | |
| 20260505191429 | 26 | 31 | 1.6 | 3.2 | 0.00 | 0.00 | 0.00 | 40 | |
| 20260505190921 | 25 | 158 | 0.0 | 3.2 | 0.00 | 0.00 | 0.00 | 40 | |
| 20260505190416 | 25 | 168 | 0.0 | 1.6 | 0.00 | 0.00 | 0.00 | 40 | |
| 20260505185911 | 24 | 152 | 0.0 | 1.6 | 0.00 | 0.00 | 0.00 | 40 | |
| 20260505185409 | 24 | 189 | 3.2 | 6.4 | 0.00 | 0.00 | 0.00 | 41 | |
| 20260505184905 | 25 | 180 | 3.2 | 4.8 | 0.00 | 0.00 | 0.00 | 41 | |
| 20260505184402 | 25 | 164 | 3.2 | 4.8 | 0.00 | 0.00 | 0.00 | 44 | |
| 20260505183858 | 25 | 219 | 3.2 | 6.4 | 0.00 | 0.00 | 0.00 | 39 | |
| 20260505183355 | 25 | 172 | 1.6 | 4.8 | 0.00 | 0.00 | 0.00 | 40 | |
| 20260505182852 | 25 | 178 | 0.0 | 1.6 | 0.00 | 0.00 | 0.00 | 43 | |
| 20260505182348 | 25 | 145 | 0.0 | 3.2 | 0.00 | 0.00 | 0.00 | 40 | |
| 20260505181845 | 25 | 184 | 0.0 | 4.8 | 0.00 | 0.00 | 0.00 | 40 | |
| 20260505181342 | 25 | 162 | 1.6 | 6.4 | 0.00 | 0.00 | 0.00 | 41 | |
| 20260505180839 | 25 | 243 | 3.2 | 4.8 | 0.00 | 0.00 | 0.00 | 41 | |
| 20260505180335 | 25 | 135 | 1.6 | 3.2 | 0.00 | 0.00 | 0.00 | 41 | |
| 20260505175832 | 24 | 167 | 3.2 | 4.8 | 0.00 | 0.00 | 0.00 | 43 | |
| 20260505175328 | 25 | 178 | 3.2 | 6.4 | 0.00 | 0.00 | 0.00 | 41 | |
| 20260505174825 | 24 | 116 | 1.6 | 4.8 | 0.00 | 0.00 | 0.00 | 42 | |
| 20260505174322 | 24 | 180 | 0.0 | 3.2 | 0.00 | 0.00 | 0.00 | 45 | |
| 20260505173818 | 24 | 191 | 1.6 | 3.2 | 0.00 | 0.00 | 0.00 | 44 | |
| 20260505173314 | 25 | 137 | 3.2 | 9.7 | 0.00 | 0.00 | 0.00 | 46 | |
| 20260505172812 | 24 | 162 | 0.0 | 1.6 | 0.00 | 0.00 | 0.00 | 43 | |
| 20260505172310 | 24 | 250 | 1.6 | 3.2 | 0.00 | 0.00 | 0.00 | 43 | |
| 20260505171804 | 24 | 168 | 3.2 | 3.2 | 0.00 | 0.00 | 0.00 | 42 | |
| 20260505171301 | 24 | 142 | 3.2 | 9.7 | 0.00 | 0.00 | 0.00 | 41 | |
| 20260505170757 | 24 | 168 | 1.6 | 3.2 | 0.00 | 0.00 | 0.00 | 42 | |
| 20260505170255 | 23 | 206 | 1.6 | 3.2 | 0.00 | 0.00 | 0.00 | 44 | |
| 20260505165750 | 23 | 160 | 3.2 | 11.3 | 0.00 | 0.00 | 0.00 | 43 | |
| 20260505165246 | 24 | 159 | 1.6 | 11.3 | 0.00 | 0.00 | 0.00 | 45 | |
| 20260505164742 | 23 | 162 | 3.2 | 6.4 | 0.00 | 0.00 | 0.00 | 43 | |
| 20260505164239 | 24 | 170 | 0.0 | 11.3 | 0.00 | 0.00 | 0.00 | 45 | |
| 20260505163737 | 24 | 186 | 1.6 | 6.4 | 0.00 | 0.00 | 0.00 | 45 | |
| 20260505163236 | 24 | 202 | 3.2 | 3.2 | 0.00 | 0.00 | 0.00 | 46 | |
| 20260505162732 | 23 | 174 | 3.2 | 4.8 | 0.00 | 0.00 | 0.00 | 44 | |
| 20260505162229 | 23 | 152 | 3.2 | 3.2 | 0.00 | 0.00 | 0.00 | 46 | |
| 20260505161726 | 23 | 166 | 1.6 | 4.8 | 0.00 | 0.00 | 0.00 | 44 | |
| 20260505161224 | 23 | 174 | 0.0 | 4.8 | 0.00 | 0.00 | 0.00 | 41 | |
| 20260505160721 | 23 | 218 | 4.8 | 11.3 | 0.00 | 0.00 | 0.00 | 45 | |
| 20260505160219 | 23 | 177 | 3.2 | 3.2 | 0.00 | 0.00 | 0.00 | 47 | |
| 20260505153158 | 21 | 160 | 0.0 | 1.6 | 0.00 | 0.00 | 0.00 | 54 | |
| 20260505152655 | 21 | 132 | 1.6 | 3.2 | 0.00 | 0.00 | 0.00 | 55 | |
| 20260505152151 | 21 | 156 | 0.0 | 1.6 | 0.00 | 0.00 | 0.00 | 58 | |
| 20260505151646 | 21 | 156 | 0.0 | 1.6 | 0.00 | 0.00 | 0.00 | 58 | |
| 20260505151144 | 21 | 206 | 1.6 | 1.6 | 0.00 | 0.00 | 0.00 | 60 | |
| 20260505150639 | 20 | 124 | 0.0 | 3.2 | 0.00 | 0.00 | 0.00 | 59 | |
| 20260505150137 | 20 | 136 | 0.0 | 1.6 | 0.00 | 0.00 | 0.00 | 61 | |
| 20260505140605 | 17 | 135 | 0.0 | 0.0 | 0.00 | 0.00 | 0.00 | 71 | |
| 20260505125019 | 12 | 120 | 0.0 | 0.0 | 0.00 | 0.00 | 0.00 | 89 | |
| 20260505124515 | 12 | 120 | 0.0 | 0.0 | 0.00 | 0.00 | 0.00 | 90 | |
| 20260505124012 | 12 | 120 | 0.0 | 0.0 | 0.00 | 0.00 | 0.00 | 91 | |
| 20260505123509 | 12 | 120 | 0.0 | 0.0 | 0.00 | 0.00 | 0.00 | 90 | |
| 20260505123004 | 12 | 120 | 0.0 | 0.0 | 0.00 | 0.00 | 0.00 | 90 | |
| 20260505122502 | 11 | 120 | 0.0 | 0.0 | 0.00 | 0.00 | 0.00 | 90 | |
| 20260505121958 | 11 | 110 | 0.0 | 1.6 | 0.00 | 0.00 | 0.00 | 90 | |
| 20260505121455 | 11 | 120 | 0.0 | 0.0 | 0.00 | 0.00 | 0.00 | 90 | |
| 20260505120951 | 11 | 120 | 0.0 | 1.6 | 0.00 | 0.00 | 0.00 | 90 | |
| 20260505120448 | 11 | 129 | 0.0 | 0.0 | 0.00 | 0.00 | 0.00 | 91 | |
| 20260505115947 | 11 | 119 | 0.0 | 0.0 | 0.00 | 0.00 | 0.00 | 91 | |
| 20260505115443 | 11 | 133 | 0.0 | 0.0 | 0.00 | 0.00 | 0.00 | 89 | |
| 20260505114942 | 11 | 133 | 0.0 | 0.0 | 0.00 | 0.00 | 0.00 | 94 | |
| 20260505114437 | 10 | 133 | 0.0 | 1.6 | 0.00 | 0.00 | 0.00 | 98 | |
| 20260505113934 | 9 | 133 | 0.0 | 0.0 | 0.00 | 0.00 | 0.00 | 99 | |
| 20260505113430 | 9 | 133 | 0.0 | 0.0 | 0.00 | 0.00 | 0.00 | 99 | |
| 20260505112926 | 9 | 133 | 0.0 | 0.0 | 0.00 | 0.00 | 0.00 | 99 | |
| 20260505112424 | 8 | 133 | 0.0 | 0.0 | 0.00 | 0.00 | 0.00 | 99 | |
| 20260505111920 | 8 | 133 | 0.0 | 0.0 | 0.00 | 0.00 | 0.00 | 99 | |
| 20260505111415 | 7 | 133 | 0.0 | 0.0 | 0.00 | 0.00 | 0.00 | 99 | |
| 20260505110912 | 7 | 134 | 0.0 | 0.0 | 0.00 | 0.00 | 0.00 | 99 | |
| 20260505110409 | 7 | 134 | 0.0 | 0.0 | 0.00 | 0.00 | 0.00 | 99 | |
| 20260505101839 | 7 | 134 | 0.0 | 0.0 | 0.00 | 0.00 | 0.00 | 99 | |
| 20260505101334 | 7 | 134 | 0.0 | 0.0 | 0.00 | 0.00 | 0.00 | 99 | |
| 20260505100830 | 7 | 134 | 0.0 | 0.0 | 0.00 | 0.00 | 0.00 | 99 | |
| 20260505100327 | 7 | 134 | 0.0 | 0.0 | 0.00 | 0.00 | 0.00 | 99 | |
| 20260505095822 | 7 | 134 | 0.0 | 0.0 | 0.00 | 0.00 | 0.00 | 99 | |
| 20260505095321 | 7 | 134 | 0.0 | 0.0 | 0.00 | 0.00 | 0.00 | 99 | |
| 20260505094816 | 7 | 134 | 0.0 | 0.0 | 0.00 | 0.00 | 0.00 | 99 | |
| 20260505094313 | 8 | 134 | 0.0 | 0.0 | 0.00 | 0.00 | 0.00 | 99 | |
| 20260505093814 | 8 | 134 | 0.0 | 0.0 | 0.00 | 0.00 | 0.00 | 99 | |
| 20260505093312 | 8 | 134 | 0.0 | 0.0 | 0.00 | 0.00 | 0.00 | 99 | |
| 20260505092808 | 8 | 134 | 0.0 | 0.0 | 0.00 | 0.00 | 0.00 | 99 | |
| 20260505092307 | 8 | 134 | 0.0 | 0.0 | 0.00 | 0.00 | 0.00 | 99 | |
| 20260505091804 | 8 | 134 | 0.0 | 0.0 | 0.00 | 0.00 | 0.00 | 99 | |
| 20260505091302 | 8 | 134 | 0.0 | 0.0 | 0.00 | 0.00 | 0.00 | 99 | |
| 20260505090800 | 8 | 134 | 0.0 | 0.0 | 0.00 | 0.00 | 0.00 | 99 | |
| 20260505090258 | 8 | 134 | 0.0 | 0.0 | 0.00 | 0.00 | 0.00 | 99 | |
| 20260505085754 | 8 | 134 | 0.0 | 0.0 | 0.00 | 0.00 | 0.00 | 99 | |
| 20260505085252 | 8 | 134 | 0.0 | 0.0 | 0.00 | 0.00 | 0.00 | 99 | |
| 20260505084749 | 8 | 134 | 0.0 | 0.0 | 0.00 | 0.00 | 0.00 | 99 | |
| 20260505084244 | 8 | 134 | 0.0 | 0.0 | 0.00 | 0.00 | 0.00 | 99 | |
| 20260505083740 | 8 | 134 | 0.0 | 0.0 | 0.00 | 0.00 | 0.00 | 99 | |
| 20260505083237 | 8 | 134 | 0.0 | 0.0 | 0.00 | 0.00 | 0.00 | 98 | |
| 20260505082733 | 8 | 133 | 0.0 | 0.0 | 0.00 | 0.00 | 0.00 | 98 | |
| 20260505082230 | 8 | 133 | 0.0 | 0.0 | 0.00 | 0.00 | 0.00 | 98 | |
| 20260505081726 | 8 | 133 | 0.0 | 0.0 | 0.00 | 0.00 | 0.00 | 98 | |
| 20260505081223 | 8 | 133 | 0.0 | 0.0 | 0.00 | 0.00 | 0.00 | 98 | |
| 20260505080720 | 8 | 133 | 0.0 | 0.0 | 0.00 | 0.00 | 0.00 | 98 | |
| 20260505080216 | 8 | 133 | 0.0 | 0.0 | 0.00 | 0.00 | 0.00 | 98 | |
| 20260505075712 | 8 | 133 | 0.0 | 0.0 | 0.00 | 0.00 | 0.00 | 98 | |
| 20260505075209 | 8 | 133 | 0.0 | 0.0 | 0.00 | 0.00 | 0.00 | 98 | |
| 20260505074706 | 8 | 133 | 0.0 | 0.0 | 0.00 | 0.00 | 0.00 | 98 | |
| 20260505074203 | 8 | 133 | 0.0 | 0.0 | 0.00 | 0.00 | 0.00 | 98 | |
| 20260505073701 | 8 | 134 | 0.0 | 0.0 | 0.00 | 0.00 | 0.00 | 98 | |
| 20260505073159 | 8 | 134 | 0.0 | 0.0 | 0.00 | 0.00 | 0.00 | 98 | |
| 20260505072654 | 8 | 134 | 0.0 | 0.0 | 0.00 | 0.00 | 0.00 | 98 | |
| 20260505072151 | 8 | 134 | 0.0 | 0.0 | 0.00 | 0.00 | 0.00 | 98 | |
| 20260505071646 | 8 | 134 | 0.0 | 0.0 | 0.00 | 0.00 | 0.00 | 97 | |
| 20260505071144 | 9 | 133 | 0.0 | 0.0 | 0.00 | 0.00 | 0.00 | 97 | |
| 20260505070641 | 9 | 133 | 0.0 | 0.0 | 0.00 | 0.00 | 0.00 | 97 | |
| 20260505070137 | 9 | 134 | 0.0 | 0.0 | 0.00 | 0.00 | 0.00 | 97 | |
| 20260505065633 | 9 | 134 | 0.0 | 0.0 | 0.00 | 0.00 | 0.00 | 97 | |
| 20260505065130 | 9 | 134 | 0.0 | 0.0 | 0.00 | 0.00 | 0.00 | 97 | |
| 20260505064627 | 9 | 134 | 0.0 | 0.0 | 0.00 | 0.00 | 0.00 | 97 | |
| 20260505064125 | 9 | 134 | 0.0 | 0.0 | 0.00 | 0.00 | 0.00 | 97 | |
| 20260505063623 | 9 | 134 | 0.0 | 0.0 | 0.00 | 0.00 | 0.00 | 97 | |
| 20260505063118 | 9 | 134 | 0.0 | 0.0 | 0.00 | 0.00 | 0.00 | 96 | |
| 20260505062615 | 9 | 134 | 0.0 | 0.0 | 0.00 | 0.00 | 0.00 | 96 | |
| 20260505062112 | 9 | 133 | 0.0 | 0.0 | 0.00 | 0.00 | 0.00 | 96 | |
| 20260505061610 | 9 | 133 | 0.0 | 0.0 | 0.00 | 0.00 | 0.00 | 96 | |
| 20260505061108 | 10 | 133 | 0.0 | 0.0 | 0.00 | 0.00 | 0.00 | 96 | |
| 20260505060605 | 10 | 133 | 0.0 | 0.0 | 0.00 | 0.00 | 0.00 | 95 | |
| 20260505055557 | 10 | 133 | 0.0 | 0.0 | 0.00 | 0.00 | 0.00 | 95 | |
| 20260505055053 | 10 | 133 | 0.0 | 1.6 | 0.00 | 0.00 | 0.00 | 95 | |
| 20260505054551 | 10 | 136 | 0.0 | 0.0 | 0.00 | 0.00 | 0.00 | 95 | |
| 20260505054049 | 10 | 135 | 0.0 | 0.0 | 0.00 | 0.00 | 0.00 | 94 | |
| 20260505053545 | 10 | 138 | 0.0 | 0.0 | 0.00 | 0.00 | 0.00 | 94 | |
| 20260505053042 | 10 | 138 | 0.0 | 0.0 | 0.00 | 0.00 | 0.00 | 94 | |
| 20260505052539 | 10 | 138 | 0.0 | 0.0 | 0.00 | 0.00 | 0.00 | 93 | |
| 20260505052037 | 10 | 139 | 0.0 | 0.0 | 0.00 | 0.00 | 0.00 | 93 | |
| 20260505051533 | 10 | 140 | 0.0 | 0.0 | 0.00 | 0.00 | 0.00 | 93 | |
| 20260505051032 | 10 | 140 | 0.0 | 0.0 | 0.00 | 0.00 | 0.00 | 92 | |
| 20260505050529 | 10 | 140 | 0.0 | 0.0 | 0.00 | 0.00 | 0.00 | 92 |